Home   Weather   Huntington Beach   Past weeks
Flag for USA

Past Weather in Huntington Beach, California, USA — Yesterday and Last 2 Weeks

Now
66 °F

Passing clouds.


Feels Like: 66 °F
Forecast: 76 / 58 °F
Wind: No wind

Location: John Wayne Airport-Orange County Airport

Current Time: Oct 14, 2019 at 11:25:58 pm

Latest Report: Oct 14, 2019 at 10:53 pm


Visibility: 10 mi

Pressure: 29.96 "Hg

Humidity: 68%

Dew Point: 55 °F

Location of Huntington BeachLocation

Past Weather in Huntington Beach — Graph

°F

Huntington Beach Temperature Yesterday

Maximum temperature yesterday: 75 °F (at 11:53 am)
Minimum temperature yesterday: 59 °F (at 4:53 am)
Average temperature yesterday: 67 °F

High & Low Weather Summary for the Past Weeks

 TemperatureHumidityPressure
High89 °F (Oct 11, 12:53 pm)90% (Oct 8, 4:30 am)30.04 "Hg (Oct 8, 4:30 am)
Low58 °F (Oct 2, 6:53 am)6% (Oct 11, 10:53 am)29.80 "Hg (Oct 9, 4:53 pm)
Average69 °F58%29.90 "Hg
* Reported Sep 29 9:53 pm — Oct 14 9:53 pm, Huntington Beach. Weather by CustomWeather, © 2019

Note: Actual official high and low records may vary slightly from our data, if they occured in-between our weather recording intervals... More about our weather records

Advertising

Huntington Beach Weather History for the Previous 24 Hours

Scroll right to see more
 ConditionsComfort  
Time TempWeatherWind HumidityBarometerVisibility
9:53 pm
Mon, Oct 14
67 °FClear.No wind66%29.96 "Hg10 mi
8:53 pm67 °FClear.No wind71%29.94 "Hg10 mi
7:53 pm67 °FPassing clouds.No wind71%29.93 "Hg10 mi
6:53 pm67 °FPassing clouds.6 mph71%29.91 "Hg10 mi
5:53 pm69 °FPassing clouds.6 mph63%29.90 "Hg10 mi
4:53 pm71 °FPassing clouds.8 mph59%29.90 "Hg10 mi
3:53 pm72 °FPassing clouds.8 mph57%29.89 "Hg10 mi
2:53 pm74 °FPassing clouds.9 mph52%29.89 "Hg10 mi
1:53 pm73 °FPassing clouds.8 mph53%29.90 "Hg10 mi
12:53 pm72 °FPassing clouds.7 mph55%29.92 "Hg10 mi
11:53 am72 °FScattered clouds.8 mph57%29.94 "Hg10 mi
10:53 am70 °FScattered clouds.7 mph59%29.95 "Hg10 mi
9:53 am69 °FScattered clouds.6 mph63%29.96 "Hg10 mi
8:53 am67 °FPartly sunny.3 mph63%29.95 "Hg10 mi
7:53 am65 °FPartly sunny.3 mph63%29.93 "Hg10 mi
6:53 am63 °FPassing clouds.3 mph65%29.91 "Hg10 mi
5:53 am64 °FPassing clouds.5 mph65%29.90 "Hg10 mi
4:53 am64 °FPassing clouds.5 mph65%29.89 "Hg10 mi
4:26 am65 °FOvercast.5 mph63%29.89 "Hg10 mi
3:53 am65 °FMostly cloudy.3 mph66%29.89 "Hg10 mi
3:08 am64 °FPassing clouds.No wind68%29.89 "Hg10 mi
2:53 am63 °FPassing clouds.3 mph70%29.89 "Hg10 mi
1:53 am64 °FClear.3 mph70%29.89 "Hg10 mi
12:53 am65 °FClear.6 mph68%29.88 "Hg10 mi
12:12 am66 °FPassing clouds.5 mph65%29.89 "Hg10 mi
11:53 pm
Sun, Oct 13
67 °FPassing clouds.5 mph63%29.89 "Hg10 mi
Weather by CustomWeather, © 2019

See weather overview